This is the latest recevied weather packets stored in our database for station/object W9WRP. If no packets are shown the sender has not sent any weather packets the latest 10 day(s).
| Time | Temp. | Humidity | Pressure | Rain* | Wind** | Luminosity | Snow |
|---|---|---|---|---|---|---|---|
| 1787759890 | 39.44° C | 17% | 1014.2 hPa | 0 mm | - | 107 W/m² | - |
| 1787759586 | 39.44° C | 17% | 1014.2 hPa | 0 mm | - | 93 W/m² | - |
| 1787759281 | 38.89° C | 17% | 1014.2 hPa | 0 mm | - | 116 W/m² | - |
| 1787758975 | 38.33° C | 18% | 1014.3 hPa | 0 mm | - | 72 W/m² | - |
| 1787758669 | 37.78° C | 18% | 1014.3 hPa | 0 mm | - | 283 W/m² | - |
| 1787758369 | 37.78° C | 19% | 1014.2 hPa | 0 mm | - | 80 W/m² | - |
| 1787758068 | 37.22° C | 19% | 1014.1 hPa | 0 mm | - | 110 W/m² | - |
| 1787757765 | 37.22° C | 19% | 1013.9 hPa | 0 mm | - | 55 W/m² | - |
| 1787757465 | 36.67° C | 19% | 1014.1 hPa | 0 mm | - | 50 W/m² | - |
| 1787757160 | 36.67° C | 19% | 1014 hPa | 0 mm | - | 99 W/m² | - |
| 1787756858 | 36.11° C | 20% | 1014 hPa | 0 mm | - | 60 W/m² | - |
| 1787756555 | 36.11° C | 20% | 1014.1 hPa | 0 mm | - | 41 W/m² | - |
| 1787756253 | 36.11° C | 20% | 1013.8 hPa | 0 mm | - | 39 W/m² | - |
| 1787755948 | 35.56° C | 21% | 1013.9 hPa | 0 mm | - | 40 W/m² | - |
| 1787755647 | 35° C | 21% | 1013.7 hPa | 0 mm | - | 43 W/m² | - |
| 1787755343 | 35.56° C | 21% | 1013.9 hPa | 0 mm | - | 42 W/m² | - |
| 1787755042 | 35° C | 22% | 1014.1 hPa | 0 mm | - | 45 W/m² | - |
| 1787754737 | 34.44° C | 22% | 1014 hPa | 0 mm | - | 48 W/m² | - |
| 1787754434 | 34.44° C | 22% | 1013.7 hPa | 0 mm | - | 47 W/m² | - |
| 1787754130 | 33.89° C | 23% | 1013.9 hPa | 0 mm | - | 46 W/m² | - |
| 1787753824 | 32.78° C | 23% | 1013.9 hPa | 0 mm | - | 83 W/m² | - |
| 1787753523 | 32.78° C | 24% | 1014 hPa | 0 mm | - | 52 W/m² | - |
| 1787753222 | 32.22° C | 24% | 1014 hPa | 0 mm | - | 58 W/m² | - |
| 1787752917 | 31.67° C | 25% | 1013.7 hPa | 0 mm | - | 30 W/m² | - |
| 1787752616 | 31.11° C | 25% | 1013.6 hPa | 0 mm | - | 29 W/m² | - |
* Rain latest hour (hover to see other rain measurements)
** Current wind speed in m/s (hover to see current wind gust speed)